Location: Baix
(44.7118°N, 4.7648°E)
Time: 01:36:31
(UTC+00:00)

Vanguard 3 - Pass Details

Date: 29 November 2020
Orbit: 508 x 3262 km, 33.3° (Epoch: 19 January)

Event Time Altitude Azimuth Distance (km) Brightness Sun altitude
Rises 21:00:46 0° 232° (SW) 2,597 - -51.8°
Reaches altitude 10° 21:03:29 10° 208° (SSW) 1,735 - -52.2°
Maximum altitude 21:05:53 16° 168° (SSE) 1,472 - -52.6°
Drops below altitude 10° 21:08:37 10° 128° (SE) 2,004 - -53.0°
Sets 21:12:07 0° 108° (ESE) 3,244 - -53.6°
